Stations météo

réclame
Mon MeteoGroup
Oostende Airport, Belgique (6407): Température de l'air & dewpoint: 15.09.2018 10:00:00 - 21.09.2018 10:00:00 (CEST)Oostende Airport, Belgique (6407): Vitesse du vent & gusts: 15.09.2018 10:00:00 - 21.09.2018 10:00:00 (CEST)Oostende Airport, Belgique (6407): Direction du vent: 15.09.2018 10:00:00 - 21.09.2018 10:00:00 (CEST)Oostende Airport, Belgique (6407): reduced air pressure: 15.09.2018 10:00:00 - 21.09.2018 10:00:00 (CEST)Oostende Airport, Belgique (6407): visibility: 15.09.2018 10:00:00 - 21.09.2018 10:00:00 (CEST)
Date & Time tt [°C] td [°C] ff [km/h] ff [knt] fx [km/h] fx [knt] dd ppp [hPa] vv [km]
21.09.2018 10:00:00 14,2 8,5 41 22 61 33 W 1006,3 10
21.09.2018 09:00:00 14,5 8,6 44 24 68 37 W 1004,7 10
21.09.2018 08:00:00 15,0 10,0 42 23 - - WSW 1003,7 10
21.09.2018 07:00:00 14,8 12,4 29 16 65 35 WSW 1002,4 6
21.09.2018 06:00:00 17,8 14,0 39 21 58 31 SSW 1001,0 10
21.09.2018 05:00:00 18,6 13,1 37 20 - - SSW 1001,6 10
21.09.2018 04:00:00 18,3 13,0 31 17 47 25 S 1002,4 10
21.09.2018 03:00:00 18,3 13,0 26 14 43 23 S 1004,0 10
21.09.2018 02:00:00 18,2 13,3 22 12 - - S 1005,7 10
21.09.2018 01:00:00 17,7 13,1 18 10 25 14 S 1006,3 10
21.09.2018 00:00:00 17,9 13,4 18 10 36 19 SW 1007,5 10
20.09.2018 23:00:00 19,3 13,6 22 12 - - S 1007,8 10
20.09.2018 22:00:00 18,6 13,7 13 7 18 10 S 1008,9 10
20.09.2018 21:00:00 19,1 13,8 8 4 18 10 SW 1009,8 10
20.09.2018 20:00:00 19,7 13,9 4 2 - - - 1010,7 10
20.09.2018 19:00:00 21,1 14,7 11 6 18 10 SSW 1011,5 25
20.09.2018 18:00:00 21,7 14,3 15 8 32 18 SSW 1012,3 10
20.09.2018 17:00:00 21,3 14,0 22 12 - - SSW 1013,2 10
20.09.2018 16:00:00 21,2 14,0 28 15 43 23 SSW 1014,0 10
20.09.2018 15:00:00 21,9 14,0 29 16 47 25 SSW 1014,5 10
20.09.2018 14:00:00 22,1 14,7 29 16 - - SW 1015,2 10
20.09.2018 13:00:00 20,5 14,2 34 18 47 25 SW 1015,6 10
20.09.2018 12:00:00 19,1 14,6 29 16 43 23 SSW 1016,0 10
20.09.2018 11:00:00 18,1 14,5 26 14 - - SSW 1016,2 10
20.09.2018 10:00:00 17,2 14,3 24 13 36 19 SSW 1016,3 10
20.09.2018 09:00:00 16,5 13,9 22 12 29 16 S 1016,2 10
20.09.2018 08:00:00 14,5 12,6 15 8 - - S 1016,3 10
20.09.2018 07:00:00 14,6 12,3 16 9 22 12 S 1015,9 10
20.09.2018 06:00:00 15,2 13,2 13 7 18 10 S 1016,3 10
20.09.2018 05:00:00 16,6 14,2 11 6 - - S 1016,8 10
20.09.2018 04:00:00 16,4 14,1 11 6 18 10 SSW 1016,9 10
20.09.2018 03:00:00 15,9 13,8 15 8 22 12 SSW 1016,7 10
20.09.2018 02:00:00 16,7 14,2 16 9 - - SSW 1017,0 10
20.09.2018 01:00:00 17,0 14,2 16 9 22 12 SSW 1017,2 10
20.09.2018 00:00:00 16,6 13,7 14 8 18 10 SSW 1017,8 30
19.09.2018 23:00:00 17,5 13,8 13 7 - - SW 1017,9 10
19.09.2018 22:00:00 18,0 13,9 16 9 29 16 WSW 1017,6 10
19.09.2018 21:00:00 19,1 13,7 16 9 43 23 SW 1017,1 10
19.09.2018 20:00:00 20,3 13,6 28 15 - - SW 1016,8 10
19.09.2018 19:00:00 21,3 13,8 31 17 50 27 SW 1016,6 10
19.09.2018 18:00:00 21,1 13,9 34 18 61 33 SW 1016,4 10
19.09.2018 17:00:00 22,0 14,2 35 19 - - SW 1016,5 10
19.09.2018 16:00:00 22,5 14,7 39 21 54 29 SW 1016,3 10
19.09.2018 15:00:00 22,0 14,1 39 21 50 27 SW 1016,3 10
19.09.2018 14:00:00 22,3 14,1 35 19 - - SW 1016,5 10
19.09.2018 13:00:00 20,5 13,2 34 18 47 25 SW 1016,6 10
19.09.2018 12:00:00 20,9 14,6 28 15 43 23 SW 1016,8 10
19.09.2018 11:00:00 18,8 14,0 29 16 - - SW 1016,7 10
19.09.2018 10:00:00 17,8 14,3 22 12 29 16 SSW 1016,0 10
19.09.2018 09:00:00 15,3 13,0 15 8 22 12 SSW 1015,8 10
19.09.2018 08:00:00 13,3 11,5 13 7 - - SSW 1015,7 10
19.09.2018 07:00:00 12,4 10,8 9 5 14 8 S 1015,4 10
19.09.2018 06:00:00 13,3 11,3 11 6 14 8 SSE 1015,5 10
19.09.2018 05:00:00 13,5 11,3 8 4 - - SSW 1015,7 10
19.09.2018 04:00:00 13,5 11,4 5 3 7 4 SSW 1016,1 10
19.09.2018 03:00:00 13,5 11,3 7 4 22 12 W 1016,0 15
19.09.2018 02:00:00 13,7 11,4 13 7 - - S 1015,8 10
19.09.2018 01:00:00 14,1 11,6 13 7 14 8 S 1015,7 10
19.09.2018 00:00:00 14,3 11,7 11 6 14 8 SSW 1015,5 10
18.09.2018 23:00:00 14,1 11,1 9 5 - - SSW 1015,7 10
18.09.2018 22:00:00 15,0 11,5 11 6 15 8 SSW 1016,0 10
18.09.2018 21:00:00 16,0 12,1 9 5 36 19 S 1015,8 10
18.09.2018 20:00:00 18,2 12,4 22 12 - - WSW 1015,3 10
18.09.2018 19:00:00 18,7 12,3 24 13 58 31 SW 1014,8 10
18.09.2018 18:00:00 20,4 13,1 37 20 58 31 SW 1014,4 10
18.09.2018 17:00:00 21,5 13,2 37 20 - - SW 1013,9 10
18.09.2018 16:00:00 21,5 11,9 41 22 61 33 SW 1013,7 10
18.09.2018 15:00:00 22,5 13,6 41 22 58 31 SW 1013,0 10
18.09.2018 14:00:00 21,3 13,7 37 20 - - SW 1012,8 10
18.09.2018 13:00:00 22,2 14,2 37 20 54 29 SW 1012,3 10
18.09.2018 12:00:00 21,1 13,9 37 20 54 29 SW 1011,9 10
18.09.2018 11:00:00 19,9 14,0 31 17 - - SW 1011,2 10
18.09.2018 10:00:00 18,5 14,2 21 11 29 16 SSW 1010,8 10
18.09.2018 09:00:00 16,3 10,8 16 9 22 12 S 1010,6 10
18.09.2018 08:00:00 13,7 8,6 11 6 - - SSW 1010,3 30
18.09.2018 07:00:00 16,6 9,0 16 9 25 14 SSW 1009,5 10
18.09.2018 06:00:00 16,3 8,5 15 8 22 12 S 1009,2 10
18.09.2018 05:00:00 15,5 8,2 16 9 - - SSE 1009,2 10
18.09.2018 04:00:00 15,0 8,1 16 9 22 12 SSE 1009,8 10
18.09.2018 03:00:00 15,3 8,2 13 7 18 10 SSE 1010,3 10
18.09.2018 02:00:00 15,2 8,2 15 8 - - SSE 1011,0 10
18.09.2018 01:00:00 15,7 8,2 15 8 18 10 SSE 1011,5 10
18.09.2018 00:00:00 15,6 7,4 9 5 14 8 SE 1012,1 10
17.09.2018 23:00:00 14,8 8,5 11 6 - - SE 1012,7 10
17.09.2018 22:00:00 15,1 8,7 11 6 11 6 ESE 1013,4 10
17.09.2018 21:00:00 17,2 9,5 8 4 14 8 SE 1013,9 10
17.09.2018 20:00:00 19,2 10,3 9 5 - - SE 1014,3 10
17.09.2018 19:00:00 22,5 9,6 13 7 25 14 S 1014,7 10
17.09.2018 18:00:00 24,4 7,6 18 10 32 18 S 1015,2 10
17.09.2018 17:00:00 24,7 8,0 18 10 - - S 1015,9 10
17.09.2018 16:00:00 24,5 8,6 22 12 32 18 S 1016,6 10
17.09.2018 15:00:00 23,9 9,8 21 11 32 18 S 1017,4 10
17.09.2018 14:00:00 23,5 10,1 15 8 - - SSW 1018,1 10
17.09.2018 13:00:00 22,1 10,2 18 10 25 14 SSW 1018,5 30
17.09.2018 12:00:00 19,9 11,6 8 4 15 8 S 1019,2 30
17.09.2018 11:00:00 17,4 10,2 9 5 - - SSW 1019,4 10
17.09.2018 10:00:00 14,8 9,4 9 5 11 6 SSW 1019,5 10
17.09.2018 09:00:00 12,2 8,4 4 2 11 6 S 1019,8 30
17.09.2018 08:00:00 10,2 7,2 9 5 - - SSW 1019,4 10
17.09.2018 07:00:00 9,6 7,0 5 3 11 6 S 1019,1 10
17.09.2018 06:00:00 10,0 6,9 9 5 14 8 SSW 1018,9 10
17.09.2018 05:00:00 9,6 6,9 9 5 - - SSW 1019,2 10
17.09.2018 04:00:00 10,9 7,7 11 6 14 8 SSW 1019,4 18
17.09.2018 03:00:00 10,0 7,2 9 5 11 6 S 1019,3 10
17.09.2018 02:00:00 10,6 7,7 8 4 - - SSW 1019,9 10
17.09.2018 01:00:00 10,7 7,4 8 4 11 6 SSW 1019,9 10
17.09.2018 00:00:00 12,3 8,6 9 5 11 6 SSW 1019,9 10
16.09.2018 23:00:00 11,9 9,2 8 4 - - SSW 1020,2 10
16.09.2018 22:00:00 13,3 10,2 8 4 7 4 SSW 1020,3 10
16.09.2018 21:00:00 14,4 10,6 5 3 11 6 S 1020,1 10
16.09.2018 20:00:00 18,0 12,5 2 1 - - - 1019,9 10
16.09.2018 19:00:00 19,2 12,8 11 6 29 16 W 1019,8 10
16.09.2018 18:00:00 21,4 9,9 21 11 29 16 SSW 1019,5 10
16.09.2018 17:00:00 21,6 10,1 21 11 - - SSW 1019,9 10
16.09.2018 16:00:00 20,8 9,7 22 12 32 18 SSW 1020,2 10
16.09.2018 15:00:00 20,9 9,8 22 12 32 18 SSW 1020,7 10
16.09.2018 14:00:00 20,9 10,5 25 14 - - SSW 1021,0 30
16.09.2018 13:00:00 20,0 10,6 22 12 36 19 S 1021,7 10
16.09.2018 12:00:00 20,2 11,8 18 10 36 19 SSW 1022,2 10
16.09.2018 11:00:00 16,4 10,9 18 10 - - S 1022,1 10
16.09.2018 10:00:00 14,6 10,4 16 9 22 12 S 1022,0 10
16.09.2018 09:00:00 11,9 9,5 9 5 14 8 S 1022,2 10
16.09.2018 08:00:00 9,7 7,8 13 7 - - S 1022,3 10
16.09.2018 07:00:00 10,3 8,3 15 8 18 10 S 1022,3 9
16.09.2018 06:00:00 8,5 6,9 13 7 14 8 S 1022,4 9
16.09.2018 05:00:00 8,4 7,2 11 6 - - S 1022,7 8
16.09.2018 04:00:00 8,7 7,3 8 4 11 6 SSE 1022,9 9
16.09.2018 03:00:00 8,6 6,9 8 4 11 6 SSE 1023,5 10
16.09.2018 02:00:00 8,9 7,3 11 6 - - SSE 1024,3 12
16.09.2018 01:00:00 9,4 7,7 8 4 11 6 S 1024,9 10
16.09.2018 00:00:00 10,4 8,3 5 3 7 4 S 1025,2 10
15.09.2018 23:00:00 10,8 8,3 8 4 - - SSW 1025,3 10
15.09.2018 22:00:00 12,3 9,9 5 3 7 4 SSE 1025,2 10
15.09.2018 21:00:00 14,3 11,0 5 3 11 6 SE 1025,2 10
15.09.2018 20:00:00 15,4 11,4 8 4 - - W 1024,7 10
15.09.2018 19:00:00 16,9 11,2 9 5 14 8 W 1024,8 10
15.09.2018 18:00:00 17,5 10,8 11 6 18 10 WNW 1024,9 10
15.09.2018 17:00:00 18,4 9,4 15 8 - - WNW 1025,3 10
15.09.2018 16:00:00 18,1 11,2 18 10 25 14 W 1025,5 30
15.09.2018 15:00:00 18,2 10,8 21 11 29 16 W 1025,7 10
15.09.2018 14:00:00 17,8 11,8 18 10 - - W 1025,5 10
15.09.2018 13:00:00 17,9 12,5 21 11 29 16 W 1025,7 10
15.09.2018 12:00:00 16,5 12,0 18 10 25 14 W 1025,6 10
15.09.2018 11:00:00 16,0 11,9 16 9 - - W 1025,2 10
15.09.2018 10:00:00 15,5 11,9 11 6 18 10 SSW 1024,8 30

tt = Température de l'air
td = dewpoint
ff = Vitesse du vent
fx = gusts
dd = Direction du vent
ppp = reduced air pressure
vv = visibility

stations d'obs. à proximité